Time,TemperatureF,DewpointF,PressureIn,WindDirection,WindDirectionDegrees,WindSpeedMPH,WindSpeedGustMPH,Humidity,HourlyPrecipIn,Conditions,Clouds,dailyrainin,SolarRadiationWatts/m^2,SoftwareType,DateUTC
2014-01-24 00:02:00,16.0,-6.0,-100.00,NW,320,7.0,11.0,36,0.00,,,0.00,0.000000,,2014-01-24 05:02:00,
2014-01-24 00:42:00,16.0,-6.0,-100.00,NW,320,7.0,11.0,36,0.00,,,0.00,0.000000,,2014-01-24 05:42:00,
2014-01-24 00:53:00,16.0,-6.0,-100.00,NW,320,7.0,11.0,36,0.00,,,0.00,0.000000,,2014-01-24 05:53:00,
2014-01-24 01:02:00,15.0,-5.0,-100.00,NW,322,6.0,13.0,40,0.00,,,0.00,0.000000,,2014-01-24 06:02:00,
2014-01-24 01:42:00,15.0,-5.0,-100.00,NW,322,6.0,13.0,40,0.00,,,0.00,0.000000,,2014-01-24 06:42:00,
2014-01-24 01:52:00,15.0,-5.0,-100.00,NW,322,6.0,13.0,40,0.00,,,0.00,0.000000,,2014-01-24 06:52:00,
2014-01-24 02:42:00,14.0,-4.0,-100.00,NNW,333,7.0,11.0,44,0.00,,,0.00,0.000000,,2014-01-24 07:42:00,
2014-01-24 02:52:00,14.0,-4.0,-100.00,NNW,333,7.0,11.0,44,0.00,,,0.00,0.000000,,2014-01-24 07:52:00,
2014-01-24 03:01:00,14.0,-4.0,-100.00,NNW,333,7.0,11.0,44,0.00,,,0.00,0.000000,,2014-01-24 08:01:00,
2014-01-24 03:02:00,12.0,-4.0,-100.00,NNW,328,5.0,12.0,47,0.00,,,0.00,0.000000,,2014-01-24 08:02:00,
2014-01-24 03:42:00,12.0,-4.0,-100.00,NNW,328,5.0,12.0,47,0.00,,,0.00,0.000000,,2014-01-24 08:42:00,
2014-01-24 03:52:00,12.0,-4.0,-100.00,NNW,328,5.0,12.0,47,0.00,,,0.00,0.000000,,2014-01-24 08:52:00,
2014-01-24 04:02:00,11.0,-4.0,-100.00,NNW,330,4.0,8.0,50,0.00,,,0.00,0.000000,,2014-01-24 09:02:00,
2014-01-24 04:43:00,11.0,-4.0,-100.00,NNW,330,4.0,8.0,50,0.00,,,0.00,0.000000,,2014-01-24 09:43:00,
2014-01-24 04:53:00,11.0,-4.0,-100.00,NNW,330,4.0,8.0,50,0.00,,,0.00,0.000000,,2014-01-24 09:53:00,
2014-01-24 05:02:00,10.0,-5.0,-100.00,NNW,331,5.0,8.0,50,0.00,,,0.00,0.000000,,2014-01-24 10:02:00,
2014-01-24 05:42:00,10.0,-5.0,-100.00,NNW,331,5.0,8.0,50,0.00,,,0.00,0.000000,,2014-01-24 10:42:00,
2014-01-24 05:52:00,10.0,-5.0,-100.00,NNW,331,5.0,8.0,50,0.00,,,0.00,0.000000,,2014-01-24 10:52:00,
2014-01-24 06:02:00,9.0,-5.0,-100.00,NW,317,4.0,7.0,53,0.00,,,-99.99,0.000000,,2014-01-24 11:02:00,
2014-01-24 06:42:00,9.0,-5.0,-100.00,NW,317,4.0,7.0,53,0.00,,,-99.99,0.000000,,2014-01-24 11:42:00,
2014-01-24 06:52:00,9.0,-5.0,-100.00,NW,317,4.0,7.0,53,0.00,,,-99.99,0.000000,,2014-01-24 11:52:00,
2014-01-24 07:02:00,7.0,-5.0,-100.00,NNW,339,2.0,4.0,56,0.00,,,0.00,0.000000,,2014-01-24 12:02:00,
2014-01-24 07:42:00,7.0,-5.0,-100.00,NNW,339,2.0,4.0,56,0.00,,,0.00,0.000000,,2014-01-24 12:42:00,
2014-01-24 07:52:00,7.0,-5.0,-100.00,NNW,339,2.0,4.0,56,0.00,,,0.00,0.000000,,2014-01-24 12:52:00,
2014-01-24 08:02:00,6.0,-4.0,-100.00,NW,314,2.0,5.0,62,0.00,,,0.00,2.000000,,2014-01-24 13:02:00,
2014-01-24 08:42:00,6.0,-4.0,-100.00,NW,314,2.0,5.0,62,0.00,,,0.00,2.000000,,2014-01-24 13:42:00,
2014-01-24 08:52:00,6.0,-4.0,-100.00,NW,314,2.0,5.0,62,0.00,,,0.00,2.000000,,2014-01-24 13:52:00,
2014-01-24 09:02:00,9.0,-2.0,-100.00,NW,312,2.0,5.0,60,0.00,,,0.00,32.000000,,2014-01-24 14:02:00,
2014-01-24 09:42:00,9.0,-2.0,-100.00,NW,312,2.0,5.0,60,0.00,,,0.00,32.000000,,2014-01-24 14:42:00,
2014-01-24 09:52:00,9.0,-2.0,-100.00,NW,312,2.0,5.0,60,0.00,,,0.00,32.000000,,2014-01-24 14:52:00,
2014-01-24 10:02:00,13.0,-4.0,-100.00,NW,323,3.0,6.0,46,0.00,,,0.00,37.000000,,2014-01-24 15:02:00,
2014-01-24 10:22:00,13.0,-4.0,-100.00,NW,323,3.0,6.0,46,0.00,,,0.00,37.000000,,2014-01-24 15:22:00,
2014-01-24 10:33:00,13.0,-4.0,-100.00,NW,323,3.0,6.0,46,0.00,,,0.00,37.000000,,2014-01-24 15:33:00,
2014-01-24 10:44:00,13.0,-4.0,-100.00,NW,323,3.0,6.0,46,0.00,,,0.00,37.000000,,2014-01-24 15:44:00,
2014-01-24 10:53:00,13.0,-4.0,-100.00,NW,323,3.0,6.0,46,0.00,,,0.00,37.000000,,2014-01-24 15:53:00,
2014-01-24 11:02:00,19.0,-4.0,-100.00,NNW,347,3.0,6.0,35,0.00,,,0.00,117.000000,,2014-01-24 16:02:00,
2014-01-24 11:42:00,19.0,-4.0,-100.00,NNW,347,3.0,6.0,35,0.00,,,0.00,117.000000,,2014-01-24 16:42:00,
2014-01-24 11:53:00,19.0,-4.0,-100.00,NNW,347,3.0,6.0,35,0.00,,,0.00,117.000000,,2014-01-24 16:53:00,
2014-01-24 12:02:00,26.0,-7.0,-100.00,NE,42,3.0,6.0,23,0.00,,,0.00,304.000000,,2014-01-24 17:02:00,
2014-01-24 12:42:00,26.0,-7.0,-100.00,NE,42,3.0,6.0,23,0.00,,,0.00,304.000000,,2014-01-24 17:42:00,
2014-01-24 12:52:00,26.0,-7.0,-100.00,NE,42,3.0,6.0,23,0.00,,,0.00,304.000000,,2014-01-24 17:52:00,
2014-01-24 13:02:00,29.0,-13.0,-100.00,NNE,12,4.0,6.0,15,0.00,,,0.00,576.000000,,2014-01-24 18:02:00,
2014-01-24 13:43:00,29.0,-13.0,-100.00,NNE,12,4.0,6.0,15,0.00,,,0.00,576.000000,,2014-01-24 18:43:00,
2014-01-24 13:52:00,29.0,-13.0,-100.00,NNE,12,4.0,6.0,15,0.00,,,0.00,576.000000,,2014-01-24 18:52:00,
2014-01-24 14:42:00,33.0,-12.0,-100.00,North,-999,0.0,7.0,13,0.00,,,0.00,631.000000,,2014-01-24 19:42:00,
2014-01-24 14:52:00,33.0,-12.0,-100.00,North,-999,0.0,7.0,13,0.00,,,0.00,631.000000,,2014-01-24 19:52:00,
2014-01-24 15:01:00,33.0,-12.0,-100.00,North,-999,0.0,7.0,13,0.00,,,0.00,631.000000,,2014-01-24 20:01:00,
2014-01-24 15:02:00,36.0,-10.0,-100.00,South,186,2.0,6.0,13,0.00,,,0.00,553.000000,,2014-01-24 20:02:00,
2014-01-24 15:42:00,36.0,-10.0,-100.00,South,186,2.0,6.0,13,0.00,,,0.00,553.000000,,2014-01-24 20:42:00,
2014-01-24 15:52:00,36.0,-10.0,-100.00,South,186,2.0,6.0,13,0.00,,,0.00,553.000000,,2014-01-24 20:52:00,
2014-01-24 16:02:00,36.0,-10.0,-100.00,North,-999,0.0,6.0,13,0.00,,,0.00,421.000000,,2014-01-24 21:02:00,
2014-01-24 16:43:00,36.0,-10.0,-100.00,North,-999,0.0,6.0,13,0.00,,,0.00,421.000000,,2014-01-24 21:43:00,
2014-01-24 16:53:00,36.0,-10.0,-100.00,North,-999,0.0,6.0,13,0.00,,,0.00,421.000000,,2014-01-24 21:53:00,
2014-01-24 17:02:00,30.0,-12.0,-100.00,North,-999,0.0,5.0,15,0.00,,,0.00,137.000000,,2014-01-24 22:02:00,
2014-01-24 17:43:00,30.0,-12.0,-100.00,North,-999,0.0,5.0,15,0.00,,,0.00,137.000000,,2014-01-24 22:43:00,
2014-01-24 17:52:00,30.0,-12.0,-100.00,North,-999,0.0,5.0,15,0.00,,,0.00,137.000000,,2014-01-24 22:52:00,
2014-01-24 19:02:00,25.0,-8.0,-100.00,North,-999,0.0,3.0,23,0.00,,,0.00,0.000000,,2014-01-25 00:02:00,
2014-01-24 19:22:00,25.0,-8.0,-100.00,North,-999,0.0,3.0,23,0.00,,,0.00,0.000000,,2014-01-25 00:22:00,
2014-01-24 19:32:00,25.0,-8.0,-100.00,North,-999,0.0,3.0,23,0.00,,,0.00,0.000000,,2014-01-25 00:32:00,
2014-01-24 19:42:00,25.0,-8.0,-100.00,North,-999,0.0,3.0,23,0.00,,,0.00,0.000000,,2014-01-25 00:42:00,
2014-01-24 19:52:00,25.0,-8.0,-100.00,North,-999,0.0,3.0,23,0.00,,,0.00,0.000000,,2014-01-25 00:52:00,
2014-01-24 23:02:00,17.0,-5.0,-100.00,NNW,346,2.0,3.0,37,0.00,,,0.00,0.000000,,2014-01-25 04:02:00,
2014-01-24 23:43:00,17.0,-5.0,-100.00,NNW,346,2.0,3.0,37,0.00,,,0.00,0.000000,,2014-01-25 04:43:00,
2014-01-24 23:53:00,17.0,-5.0,-100.00,NNW,346,2.0,3.0,37,0.00,,,0.00,0.000000,,2014-01-25 04:53:00,